Tracking 21606 objects as of 24-Oct-2020
HD Live streaming from Space Station
objects crossing your sky now

FENGYUN 1C DEB

Track FENGYUN 1C DEB now!
10-day predictions


NORAD ID: 31297
Int'l Code: 1999-025BPF
Perigee: 622.9 km
Apogee: 843.5 km
Inclination: 99.0 °
Period: 99.3 minutes
Semi major axis: 7104 km
RCS: 0.0028 m2 (small)
Launch date: May 10, 1999
Source: People's Republic of China (PRC)
Launch site: Taiyaun Space Center, China (TSC)

Note: This is SATELLITE DEBRIS
aabbcc
Your satellite tracking list
Your tracking list is empty




NASA's NSSDC Master Catalog

Two Line Element Set (TLE):
1 31297U 99025BPF 20297.96488484 +.00000199 +00000-0 +57333-4 0  9992
2 31297 098.9932 286.3270 0155246 019.5834 037.3243 14.49877533720939
Source of the keplerian elements: AFSPC